When you browse on this site, cookies collect data to enhance your experience and personalize the content and advertising you see.
Visit our Privacy Policy to learn more. By continuing to use the site, you agree to this use of cookies and data.
  • In Lithuania
  • List of Countries
  • For 7 days
  • Water Temperature
  • Weather Map
  • Weather Widgets
  • user-avatar
    Login

    Hourly Weather Sankt Polten

    Today, 24 August, Saturday

    Time Temperature Precipitation Wind Pressure Humidity
    00:00 +19°C° 0 mm 1 mps 741 mmHg 90%
    01:00 +19°C° 0 mm 1 mps 741 mmHg 91%
    02:00 +19°C° 0 mm 1 mps 741 mmHg 91%
    03:00 +19°C° 0 mm 1 mps 740 mmHg 91%
    04:00 +19°C° 0 mm 1 mps 740 mmHg 92%
    05:00 +20°C° 0 mm 1 mps 740 mmHg 90%
    06:00 +20°C° 0 mm 1 mps 740 mmHg 88%
    07:00 +21°C° 0 mm 1 mps 740 mmHg 87%
    08:00 +23°C° 0 mm 1 mps 740 mmHg 78%
    09:00 +25°C° 0 mm 2 mps 740 mmHg 70%
    10:00 +27°C° 0 mm 2 mps 741 mmHg 62%
    11:00 +28°C° 0 mm 2 mps 740 mmHg 57%
    12:00 +30°C° 0 mm 3 mps 740 mmHg 52%
    13:00 +31°C° 0 mm 3 mps 740 mmHg 46%
    14:00 +31°C° 0 mm 3 mps 739 mmHg 48%
    15:00 +30°C° 0 mm 3 mps 739 mmHg 49%
    16:00 +30°C° 0 mm 3 mps 739 mmHg 51%
    17:00 +28°C° 0 mm 3 mps 738 mmHg 58%
    18:00 +26°C° 0 mm 2 mps 738 mmHg 65%
    19:00 +24°C° 0 mm 2 mps 738 mmHg 72%
    20:00 +23°C° 0 mm 2 mps 738 mmHg 75%
    21:00 +21°C° 0 mm 2 mps 738 mmHg 78%
    22:00 +21°C° 0 mm 2 mps 738 mmHg 81%
    23:00 +20°C° 0 mm 2 mps 738 mmHg 82%

    Tomorrow, 25 August, Sunday

    Time Temperature Precipitation Wind Pressure Humidity
    00:00 +21°C° 0 mm 1 mps 738 mmHg 83%
    01:00 +21°C° 0 mm 1 mps 738 mmHg 85%
    02:00 +20°C° 0 mm 1 mps 738 mmHg 85%
    03:00 +20°C° 0 mm 1 mps 738 mmHg 86%
    04:00 +20°C° 0 mm 1 mps 738 mmHg 87%
    05:00 +21°C° 0 mm 1 mps 738 mmHg 85%
    06:00 +22°C° 0 mm 1 mps 738 mmHg 82%
    07:00 +23°C° 0 mm 1 mps 738 mmHg 80%
    08:00 +25°C° 0 mm 1 mps 738 mmHg 72%
    09:00 +27°C° 0 mm 1 mps 739 mmHg 64%
    10:00 +29°C° 0 mm 1 mps 739 mmHg 56%
    11:00 +30°C° 0 mm 2 mps 739 mmHg 51%
    12:00 +31°C° 0 mm 2 mps 739 mmHg 46%
    13:00 +33°C° 0 mm 3 mps 738 mmHg 41%
    14:00 +31°C° 0 mm 3 mps 738 mmHg 43%
    15:00 +31°C° 0 mm 3 mps 738 mmHg 44%
    16:00 +31°C° 0 mm 3 mps 738 mmHg 45%
    17:00 +29°C° 0.1 mm 2 mps 738 mmHg 53%
    18:00 +26°C° 0.1 mm 2 mps 737 mmHg 61%
    19:00 +24°C° 0.1 mm 1 mps 737 mmHg 69%
    20:00 +23°C° 0.2 mm 1 mps 738 mmHg 72%
    21:00 +23°C° 0.2 mm 1 mps 738 mmHg 74%
    22:00 +22°C° 0.2 mm 1 mps 739 mmHg 77%
    23:00 +22°C° 0 mm 1 mps 739 mmHg 78%

    Day after tomorrow, 26 August, Monday

    Time Temperature Precipitation Wind Pressure Humidity
    00:00 +21°C° 0 mm 1 mps 739 mmHg 80%
    01:00 +21°C° 0 mm 1 mps 738 mmHg 82%
    02:00 +20°C° 0 mm 1 mps 738 mmHg 84%
    03:00 +20°C° 0 mm 1 mps 738 mmHg 86%
    04:00 +18°C° 0 mm 0 mps 738 mmHg 88%
    05:00 +19°C° 0 mm 0 mps 738 mmHg 86%
    06:00 +19°C° 0 mm 0 mps 738 mmHg 84%
    07:00 +20°C° 0 mm 0 mps 738 mmHg 82%
    08:00 +24°C° 0 mm 1 mps 738 mmHg 75%
    09:00 +26°C° 0 mm 1 mps 739 mmHg 67%
    10:00 +28°C° 0 mm 1 mps 739 mmHg 60%
    11:00 +29°C° 0.1 mm 2 mps 738 mmHg 57%
    12:00 +30°C° 0.1 mm 2 mps 738 mmHg 53%
    13:00 +31°C° 0.1 mm 3 mps 738 mmHg 49%
    14:00 +31°C° 0.1 mm 3 mps 738 mmHg 50%
    15:00 +30°C° 0.1 mm 3 mps 738 mmHg 51%
    16:00 +30°C° 0.1 mm 3 mps 737 mmHg 52%
    17:00 +28°C° 0 mm 2 mps 737 mmHg 59%
    18:00 +26°C° 0 mm 2 mps 737 mmHg 65%
    19:00 +25°C° 0 mm 2 mps 737 mmHg 72%
    20:00 +24°C° 0 mm 2 mps 737 mmHg 74%
    21:00 +23°C° 0 mm 2 mps 737 mmHg 76%
    22:00 +22°C° 0 mm 1 mps 738 mmHg 78%
    23:00 +22°C° 0 mm 1 mps 737 mmHg 80%

    27 August, Tuesday

    Time Temperature Precipitation Wind Pressure Humidity
    00:00 +21°C° 0 mm 1 mps 737 mmHg 82%
    01:00 +21°C° 0 mm 1 mps 737 mmHg 84%
    02:00 +21°C° 0 mm 1 mps 737 mmHg 86%
    03:00 +20°C° 0 mm 1 mps 737 mmHg 88%
    04:00 +20°C° 0 mm 1 mps 737 mmHg 89%
    05:00 +21°C° 0 mm 1 mps 737 mmHg 87%
    06:00 +22°C° 0 mm 1 mps 737 mmHg 84%
    07:00 +21°C° 0 mm 0 mps 738 mmHg 81%
    08:00 +25°C° 0 mm 1 mps 738 mmHg 73%
    09:00 +27°C° 0 mm 1 mps 738 mmHg 65%
    10:00 +29°C° 0 mm 2 mps 738 mmHg 57%
    11:00 +30°C° 0 mm 2 mps 738 mmHg 52%
    12:00 +32°C° 0 mm 2 mps 738 mmHg 46%
    13:00 +34°C° 0 mm 3 mps 738 mmHg 41%
    14:00 +34°C° 0 mm 3 mps 737 mmHg 42%
    15:00 +34°C° 0 mm 3 mps 737 mmHg 42%
    16:00 +33°C° 0 mm 3 mps 737 mmHg 43%
    17:00 +30°C° 0 mm 3 mps 737 mmHg 51%
    18:00 +28°C° 0 mm 2 mps 737 mmHg 60%
    19:00 +25°C° 0 mm 2 mps 737 mmHg 68%
    20:00 +25°C° 0 mm 2 mps 737 mmHg 71%
    21:00 +24°C° 0 mm 2 mps 737 mmHg 75%
    22:00 +23°C° 0 mm 1 mps 737 mmHg 78%
    23:00 +22°C° 0 mm 1 mps 737 mmHg 80%

    28 August, Wednesday

    Time Temperature Precipitation Wind Pressure Humidity
    00:00 +22°C° 0 mm 1 mps 737 mmHg 81%
    01:00 +22°C° 0 mm 1 mps 737 mmHg 82%
    02:00 +21°C° 0 mm 1 mps 737 mmHg 83%
    03:00 +21°C° 0 mm 1 mps 737 mmHg 83%
    04:00 +21°C° 0 mm 1 mps 737 mmHg 83%
    05:00 +22°C° 0 mm 1 mps 737 mmHg 81%
    06:00 +21°C° 0 mm 0 mps 737 mmHg 78%
    07:00 +22°C° 0 mm 0 mps 737 mmHg 76%
    08:00 +24°C° 0 mm 0 mps 737 mmHg 68%
    09:00 +28°C° 0 mm 1 mps 738 mmHg 60%
    10:00 +31°C° 0 mm 1 mps 738 mmHg 52%
    11:00 +32°C° 0 mm 1 mps 737 mmHg 48%
    12:00 +32°C° 0 mm 2 mps 737 mmHg 44%
    13:00 +34°C° 0 mm 2 mps 737 mmHg 41%
    14:00 +34°C° 0 mm 3 mps 736 mmHg 41%
    15:00 +34°C° 0 mm 3 mps 736 mmHg 42%
    16:00 +33°C° 0 mm 3 mps 736 mmHg 42%
    17:00 +30°C° 0 mm 3 mps 736 mmHg 49%
    18:00 +28°C° 0 mm 2 mps 735 mmHg 57%
    19:00 +25°C° 0 mm 2 mps 735 mmHg 64%
    20:00 +25°C° 0 mm 1 mps 735 mmHg 65%
    21:00 +24°C° 0 mm 1 mps 736 mmHg 66%
    22:00 +23°C° 0 mm 1 mps 736 mmHg 67%
    23:00 +23°C° 0 mm 1 mps 736 mmHg 68%

    29 August, Thursday

    Time Temperature Precipitation Wind Pressure Humidity
    00:00 +22°C° 0 mm 1 mps 736 mmHg 69%
    01:00 +22°C° 0 mm 1 mps 736 mmHg 70%
    02:00 +21°C° 0 mm 1 mps 736 mmHg 72%
    03:00 +21°C° 0 mm 1 mps 736 mmHg 74%
    04:00 +21°C° 0 mm 1 mps 735 mmHg 75%
    05:00 +21°C° 0 mm 1 mps 736 mmHg 74%
    06:00 +22°C° 0 mm 1 mps 736 mmHg 73%
    07:00 +21°C° 0 mm 0 mps 736 mmHg 72%
    08:00 +25°C° 0 mm 1 mps 736 mmHg 65%
    09:00 +27°C° 0 mm 1 mps 736 mmHg 58%
    10:00 +29°C° 0 mm 1 mps 736 mmHg 51%
    11:00 +30°C° 0 mm 1 mps 736 mmHg 47%
    12:00 +32°C° 0 mm 2 mps 736 mmHg 42%
    13:00 +34°C° 0 mm 2 mps 736 mmHg 37%
    14:00 +32°C° 0 mm 2 mps 736 mmHg 37%
    15:00 +32°C° 0 mm 2 mps 735 mmHg 37%
    16:00 +33°C° 0 mm 3 mps 735 mmHg 36%
    17:00 +29°C° 0 mm 2 mps 735 mmHg 43%
    18:00 +27°C° 0 mm 2 mps 735 mmHg 49%
    19:00 +25°C° 0 mm 1 mps 735 mmHg 56%
    20:00 +24°C° 0 mm 1 mps 735 mmHg 57%
    21:00 +23°C° 0 mm 1 mps 735 mmHg 58%
    22:00 +22°C° 0 mm 1 mps 736 mmHg 59%
    23:00 +22°C° 0 mm 1 mps 736 mmHg 61%
    Show more